Tracking 30918 objects as of 3-Jul-2025
HD Live streaming from Space Station
objects crossing your sky now

PEGASUS R/B

Track PEGASUS R/B now!
10-day predictions


NORAD ID: 27371
Int'l Code: 2002-004B
Perigee: 452.5 km
Apogee: 463.0 km
Inclination: 38.0 °
Period: 93.6 minutes
Semi major axis: 6828 km
RCS: 0.9141 m2 (medium)
Launch date: February 5, 2002
Source: United States (US)
Launch site: Pegasus launched from Eastern Range Air Space (ERAS)

Note: This is a ROCKET BODY
Your satellite tracking list
Your tracking list is empty




NASA's NSSDC Master Catalog

Two Line Element Set (TLE):
1 27371U 02004B   25183.33353130  .00009859  00000-0  25659-3 0  9997
2 27371  38.0194 197.2075 0007651 236.0922 123.9123 15.38469404287340
Source of the keplerian elements: AFSPC